Skip Page Navigation
NASA JPL Caltech
NASA Logo - Jet Propulsion Laboratory + View the NASA Portal
+ Center for Near-Earth Object Studies
JPL Home Earth Solar System Stars & Galaxies Technology
JPL Solar System Dynamics
BODIES ORBITS EPHEMERIDES TOOLS PHYSICAL DATA DISCOVERY FAQ SITE MAP
JPL Small-Body Database Browser
Search: [ help ]  
413915 (2006 WM95)
Classification: Main-belt Asteroid          SPK-ID: 2413915
Ephemeris | Orbit Diagram | Orbital Elements | Mission Design | Physical Parameters | Discovery Circumstances ]

[ show orbit diagram ]
Orbital Elements at Epoch 2459000.5 (2020-May-31.0) TDB
Reference: JPL 13 (heliocentric ecliptic J2000)
 Element Value Uncertainty (1-sigma)   Units 
e .09521310640677996 7.1476e-07  
a 2.525975056472427 3.7834e-08 au
q 2.285469124639646 1.8161e-06 au
i 3.066880716132128 8.715e-06 deg
node 98.64838775873392 0.0001771 deg
peri 204.7094007892105 0.0012299 deg
M 237.9691383487138 0.0013207 deg
tp 2459497.560429102464
(2021-Oct-10.06042910)
0.0053763 TDB
period 1466.36475441949
4.01
3.2945e-05
9.02e-08
d
yr
n .2455050824939652 5.5158e-09 deg/d
Q 2.766480988305208 4.1437e-08 au
  Orbit Determination Parameters
   # obs. used (total)      94  
   data-arc span      4809 days (13.17 yr)  
   first obs. used      2006-11-19  
   last obs. used      2020-01-19  
   planetary ephem.      DE431  
   SB-pert. ephem.      SB431-N16  
   condition code      1  
   norm. resid. RMS      .76132  
   source      ORB  
   producer      Otto Matic  
   solution date      2020-Feb-26 07:02:45  

Additional Information
 Earth MOID = 1.27053 au 
 Jupiter MOID = 2.40512 au 
 T_jup = 3.445 
[ show covariance matrix ]

Ephemeris | Orbit Diagram | Orbital Elements | Mission Design | Physical Parameters | Discovery Circumstances ]

Physical Parameter Table
Parameter Symbol Value Units Sigma Reference Notes
absolute magnitude H 17.4   n/a MPO460573  

413915 (2006 WM95)          Discovered 2006-Nov-19 by Spacewatch at Kitt Peak
Reference: Last Updated: 2014-11-10
Ephemeris | Orbit Diagram | Orbital Elements | Mission Design | Physical Parameters | Discovery Circumstances ]
ABOUT SSD CREDITS/AWARDS PRIVACY/COPYRIGHT GLOSSARY LINKS
FirstGov 2020-Jul-05 11:56 UT
(server date/time)  
NASA Home Page
Site Manager:   Ryan S. Park
Webmaster  Alan B. Chamberlin